Location: Newark
(3.0500°N, 36.0167°E)
Time: 14:32:53
(UTC+00:00)

Transit 2A Rocket - Pass Details

Date: 24 August 2019
Orbit: 592 x 911 km, 66.7° (Epoch: 19 September)

Event Time Altitude Azimuth Distance (km) Brightness Sun altitude
Rises 02:08:01 0° 360° (N) 2,819 8.1 -21.5°
Reaches altitude 10° 02:10:33 10° 13° (NNE) 1,912 7.4 -20.9°
Maximum altitude 02:14:04 25° 70° (ENE) 1,200 6.8 -20.0°
Drops below altitude 10° 02:17:40 10° 126° (SE) 1,946 7.7 -19.1°
Sets 02:20:15 0° 139° (SE) 2,881 8.4 -18.5°
